Time,TemperatureF,DewpointF,PressureIn,WindDirection,WindDirectionDegrees,WindSpeedMPH,WindSpeedGustMPH,Humidity,HourlyPrecipIn,Conditions,Clouds,dailyrainin,SoftwareType,DateUTC
2013-08-17 00:01:00,74.0,61.5,29.99,East,84,0.0,5.0,65,0.00,,,0.00,WeatherCatV1.15B25,2013-08-17 05:01:00,
2013-08-17 00:06:00,73.8,61.3,29.99,NE,43,0.0,0.0,65,0.00,,,0.00,WeatherCatV1.15B25,2013-08-17 05:06:00,
2013-08-17 00:11:00,73.7,61.2,29.99,SE,131,0.0,5.0,65,0.00,,,0.00,WeatherCatV1.15B25,2013-08-17 05:11:00,
2013-08-17 00:16:00,73.5,61.4,29.98,NE,56,5.0,5.0,66,0.00,,,0.00,WeatherCatV1.15B25,2013-08-17 05:16:00,
2013-08-17 00:21:00,73.3,61.2,29.98,NNE,24,0.0,6.0,66,0.00,,,0.00,WeatherCatV1.15B25,2013-08-17 05:21:00,
2013-08-17 00:26:00,73.1,61.0,29.98,ENE,74,0.0,1.0,66,0.00,,,0.00,WeatherCatV1.15B25,2013-08-17 05:26:00,
2013-08-17 00:31:00,72.9,61.3,29.99,ENE,74,0.0,0.0,67,0.00,,,0.00,WeatherCatV1.15B25,2013-08-17 05:31:00,
2013-08-17 00:36:00,72.7,61.1,29.99,NE,45,0.0,0.0,67,0.00,,,0.00,WeatherCatV1.15B25,2013-08-17 05:36:00,
2013-08-17 00:41:00,72.5,60.9,29.99,NE,53,0.0,2.0,67,0.00,,,0.00,WeatherCatV1.15B25,2013-08-17 05:41:00,
2013-08-17 00:46:00,72.3,61.1,29.99,ENE,77,0.0,0.0,68,0.00,,,0.00,WeatherCatV1.15B25,2013-08-17 05:46:00,
2013-08-17 00:51:00,72.1,60.9,29.99,NE,55,0.0,2.0,68,0.00,,,0.00,WeatherCatV1.15B25,2013-08-17 05:51:00,
2013-08-17 00:56:00,71.9,60.8,29.99,East,81,0.0,5.0,68,0.00,,,0.00,WeatherCatV1.15B25,2013-08-17 05:56:00,
2013-08-17 01:01:00,71.7,61.0,29.99,ESE,109,0.0,1.0,69,0.00,,,0.00,WeatherCatV1.15B25,2013-08-17 06:01:00,
2013-08-17 01:06:00,71.5,60.8,29.99,East,82,0.0,3.0,69,0.00,,,0.00,WeatherCatV1.15B25,2013-08-17 06:06:00,
2013-08-17 01:11:00,71.3,60.6,29.99,East,94,0.0,3.0,69,0.00,,,0.00,WeatherCatV1.15B25,2013-08-17 06:11:00,
2013-08-17 01:16:00,71.1,60.8,29.99,SE,142,0.0,1.0,70,0.00,,,0.00,WeatherCatV1.15B25,2013-08-17 06:16:00,
2013-08-17 01:21:00,71.0,60.7,29.99,ESE,115,0.0,1.0,70,0.00,,,0.00,WeatherCatV1.15B25,2013-08-17 06:21:00,
2013-08-17 01:26:00,70.9,61.0,29.99,East,90,0.0,3.0,71,0.00,,,0.00,WeatherCatV1.15B25,2013-08-17 06:26:00,
2013-08-17 01:31:00,70.7,60.8,29.98,SE,137,0.0,5.0,71,0.00,,,0.00,WeatherCatV1.15B25,2013-08-17 06:31:00,
2013-08-17 01:36:00,70.6,60.7,29.98,ENE,68,0.0,2.0,71,0.00,,,0.00,WeatherCatV1.15B25,2013-08-17 06:36:00,
2013-08-17 01:41:00,70.4,60.9,29.98,East,80,0.0,0.0,72,0.00,,,0.00,WeatherCatV1.15B25,2013-08-17 06:41:00,
2013-08-17 01:46:00,70.3,60.8,29.98,NNE,14,0.0,0.0,72,0.00,,,0.00,WeatherCatV1.15B25,2013-08-17 06:46:00,
2013-08-17 01:51:00,70.2,60.7,29.98,SSE,161,0.0,1.0,72,0.00,,,0.00,WeatherCatV1.15B25,2013-08-17 06:51:00,
2013-08-17 01:56:00,70.1,61.0,29.98,ESE,121,0.0,1.0,73,0.00,,,0.00,WeatherCatV1.15B25,2013-08-17 06:56:00,
2013-08-17 02:01:00,69.9,60.8,29.99,SE,141,0.0,0.0,73,0.00,,,0.00,WeatherCatV1.15B25,2013-08-17 07:01:00,
2013-08-17 02:06:00,69.9,60.8,29.99,SE,141,0.0,0.0,73,0.00,,,0.00,WeatherCatV1.15B25,2013-08-17 07:06:00,
2013-08-17 02:11:00,69.7,61.0,29.99,SE,144,0.0,2.0,74,0.00,,,0.00,WeatherCatV1.15B25,2013-08-17 07:11:00,
2013-08-17 02:16:00,69.6,60.9,29.99,SE,144,0.0,0.0,74,0.00,,,0.00,WeatherCatV1.15B25,2013-08-17 07:16:00,
2013-08-17 02:21:00,69.5,60.8,29.99,SE,141,0.0,0.0,74,0.00,,,0.00,WeatherCatV1.15B25,2013-08-17 07:21:00,
2013-08-17 02:26:00,69.3,61.0,29.99,ESE,110,0.0,1.0,75,0.00,,,0.00,WeatherCatV1.15B25,2013-08-17 07:26:00,
2013-08-17 02:31:00,69.2,60.9,29.98,ESE,116,0.0,3.0,75,0.00,,,0.00,WeatherCatV1.15B25,2013-08-17 07:31:00,
2013-08-17 02:36:00,69.0,61.1,29.98,East,82,0.0,1.0,76,0.00,,,0.00,WeatherCatV1.15B25,2013-08-17 07:36:00,
2013-08-17 02:41:00,68.8,60.9,29.98,East,86,0.0,1.0,76,0.00,,,0.00,WeatherCatV1.15B25,2013-08-17 07:41:00,
2013-08-17 02:46:00,68.6,60.7,29.98,ENE,67,0.0,1.0,76,0.00,,,0.00,WeatherCatV1.15B25,2013-08-17 07:46:00,
2013-08-17 02:51:00,68.5,60.6,29.98,SE,134,4.0,4.0,76,0.00,,,0.00,WeatherCatV1.15B25,2013-08-17 07:51:00,
2013-08-17 02:56:00,68.4,60.9,29.98,East,100,0.0,0.0,77,0.00,,,0.00,WeatherCatV1.15B25,2013-08-17 07:56:00,
2013-08-17 03:01:00,68.3,60.8,29.98,East,91,0.0,1.0,77,0.00,,,0.00,WeatherCatV1.15B25,2013-08-17 08:01:00,
2013-08-17 03:06:00,68.3,61.2,29.98,ENE,61,0.0,0.0,78,0.00,,,0.00,WeatherCatV1.15B25,2013-08-17 08:06:00,
2013-08-17 03:11:00,68.2,61.1,29.98,ENE,71,0.0,1.0,78,0.00,,,0.00,WeatherCatV1.15B25,2013-08-17 08:11:00,
2013-08-17 03:17:00,68.2,61.1,29.97,ENE,74,0.0,1.0,78,0.00,,,0.00,WeatherCatV1.15B25,2013-08-17 08:17:00,
2013-08-17 03:22:00,68.1,61.3,29.97,ENE,61,0.0,1.0,79,0.00,,,0.00,WeatherCatV1.15B25,2013-08-17 08:22:00,
2013-08-17 03:27:00,68.0,61.2,29.97,East,80,0.0,0.0,79,0.00,,,0.00,WeatherCatV1.15B25,2013-08-17 08:27:00,
2013-08-17 03:32:00,67.9,61.1,29.97,ENE,69,0.0,1.0,79,0.00,,,0.00,WeatherCatV1.15B25,2013-08-17 08:32:00,
2013-08-17 03:37:00,67.8,61.0,29.97,East,80,0.0,3.0,79,0.00,,,0.00,WeatherCatV1.15B25,2013-08-17 08:37:00,
2013-08-17 03:42:00,67.7,60.9,29.97,ENE,59,0.0,4.0,79,0.00,,,0.00,WeatherCatV1.15B25,2013-08-17 08:42:00,
2013-08-17 03:47:00,67.6,60.8,29.98,East,85,0.0,2.0,79,0.00,,,0.00,WeatherCatV1.15B25,2013-08-17 08:47:00,
2013-08-17 03:52:00,67.5,60.7,29.98,NNE,17,0.0,1.0,79,0.00,,,0.00,WeatherCatV1.15B25,2013-08-17 08:52:00,
2013-08-17 03:57:00,67.4,60.7,29.98,SSE,147,0.0,0.0,79,0.00,,,0.00,WeatherCatV1.15B25,2013-08-17 08:57:00,
2013-08-17 04:02:00,67.2,60.8,29.98,NE,34,0.0,1.0,80,0.00,,,0.00,WeatherCatV1.15B25,2013-08-17 09:02:00,
2013-08-17 04:07:00,67.1,60.7,29.98,East,83,0.0,1.0,80,0.00,,,0.00,WeatherCatV1.15B25,2013-08-17 09:07:00,
2013-08-17 04:12:00,67.0,60.6,29.98,East,96,0.0,2.0,80,0.00,,,0.00,WeatherCatV1.15B25,2013-08-17 09:12:00,
2013-08-17 04:17:00,66.9,60.5,29.98,East,92,0.0,3.0,80,0.00,,,0.00,WeatherCatV1.15B25,2013-08-17 09:17:00,
2013-08-17 04:22:00,66.8,60.4,29.98,ENE,67,0.0,1.0,80,0.00,,,0.00,WeatherCatV1.15B25,2013-08-17 09:22:00,
2013-08-17 04:27:00,66.6,60.6,29.98,NNE,32,0.0,2.0,81,0.00,,,0.00,WeatherCatV1.15B25,2013-08-17 09:27:00,
2013-08-17 04:32:00,66.6,60.6,29.98,ENE,69,0.0,0.0,81,0.00,,,0.00,WeatherCatV1.15B25,2013-08-17 09:32:00,
2013-08-17 04:37:00,66.5,60.5,29.98,East,85,0.0,1.0,81,0.00,,,0.00,WeatherCatV1.15B25,2013-08-17 09:37:00,
2013-08-17 04:42:00,66.4,60.4,29.98,ENE,69,0.0,1.0,81,0.00,,,0.00,WeatherCatV1.15B25,2013-08-17 09:42:00,
2013-08-17 04:47:00,66.3,60.3,29.98,ENE,69,0.0,0.0,81,0.00,,,0.00,WeatherCatV1.15B25,2013-08-17 09:47:00,
2013-08-17 04:52:00,66.2,60.2,29.98,ENE,69,0.0,0.0,81,0.00,,,0.00,WeatherCatV1.15B25,2013-08-17 09:52:00,
2013-08-17 04:57:00,66.2,60.2,29.98,ENE,69,0.0,0.0,81,0.00,,,0.00,WeatherCatV1.15B25,2013-08-17 09:57:00,
2013-08-17 05:02:00,66.0,60.3,29.98,ENE,69,0.0,0.0,82,0.00,,,0.00,WeatherCatV1.15B25,2013-08-17 10:02:00,
2013-08-17 05:07:00,65.9,60.2,29.98,ENE,69,0.0,0.0,82,0.00,,,0.00,WeatherCatV1.15B25,2013-08-17 10:07:00,
2013-08-17 05:12:00,65.8,60.1,29.98,ENE,69,0.0,0.0,82,0.00,,,0.00,WeatherCatV1.15B25,2013-08-17 10:12:00,
2013-08-17 05:17:00,65.7,60.4,29.99,ENE,69,0.0,0.0,83,0.00,,,0.00,WeatherCatV1.15B25,2013-08-17 10:17:00,
2013-08-17 05:22:00,65.6,60.3,29.99,ENE,69,0.0,0.0,83,0.00,,,0.00,WeatherCatV1.15B25,2013-08-17 10:22:00,
2013-08-17 05:27:00,65.4,60.1,29.99,ENE,69,0.0,0.0,83,0.00,,,0.00,WeatherCatV1.15B25,2013-08-17 10:27:00,
2013-08-17 05:32:00,65.3,60.0,29.99,ENE,69,0.0,0.0,83,0.00,,,0.00,WeatherCatV1.15B25,2013-08-17 10:32:00,
2013-08-17 05:37:00,65.2,59.9,29.99,ENE,69,0.0,0.0,83,0.00,,,0.00,WeatherCatV1.15B25,2013-08-17 10:37:00,
2013-08-17 05:42:00,65.0,60.0,29.99,ENE,69,0.0,0.0,84,0.00,,,0.00,WeatherCatV1.15B25,2013-08-17 10:42:00,
2013-08-17 05:47:00,64.9,59.9,29.99,ENE,69,0.0,0.0,84,0.00,,,0.00,WeatherCatV1.15B25,2013-08-17 10:47:00,
2013-08-17 05:52:00,64.8,59.8,29.99,ENE,69,0.0,0.0,84,0.00,,,0.00,WeatherCatV1.15B25,2013-08-17 10:52:00,
2013-08-17 05:57:00,64.7,59.7,29.99,ENE,69,0.0,0.0,84,0.00,,,0.00,WeatherCatV1.15B25,2013-08-17 10:57:00,
2013-08-17 06:02:00,64.6,59.7,29.99,ENE,69,0.0,0.0,84,0.00,,,0.00,WeatherCatV1.15B25,2013-08-17 11:02:00,
2013-08-17 06:07:00,64.4,59.8,29.99,ENE,69,0.0,0.0,85,0.00,,,0.00,WeatherCatV1.15B25,2013-08-17 11:07:00,
2013-08-17 06:12:00,64.4,59.8,29.99,ENE,69,0.0,0.0,85,0.00,,,0.00,WeatherCatV1.15B25,2013-08-17 11:12:00,
2013-08-17 06:17:00,64.3,59.7,29.99,ENE,69,0.0,0.0,85,0.00,,,0.00,WeatherCatV1.15B25,2013-08-17 11:17:00,
2013-08-17 06:22:00,64.2,59.3,29.99,ENE,69,0.0,0.0,84,0.00,,,0.00,WeatherCatV1.15B25,2013-08-17 11:22:00,
2013-08-17 06:27:00,64.1,59.5,29.99,ENE,69,0.0,0.0,85,0.00,,,0.00,WeatherCatV1.15B25,2013-08-17 11:27:00,
2013-08-17 06:32:00,64.0,59.4,29.99,ENE,69,0.0,0.0,85,0.00,,,0.00,WeatherCatV1.15B25,2013-08-17 11:32:00,
2013-08-17 06:37:00,64.0,59.4,29.99,ENE,69,0.0,0.0,85,0.00,,,0.00,WeatherCatV1.15B25,2013-08-17 11:37:00,
2013-08-17 06:42:00,63.8,59.2,29.99,ENE,69,0.0,0.0,85,0.00,,,0.00,WeatherCatV1.15B25,2013-08-17 11:42:00,
2013-08-17 06:47:00,63.8,59.5,30.00,ENE,69,0.0,0.0,86,0.00,,,0.00,WeatherCatV1.15B25,2013-08-17 11:47:00,
2013-08-17 06:52:00,63.7,59.1,30.00,ENE,69,0.0,0.0,85,0.00,,,0.00,WeatherCatV1.15B25,2013-08-17 11:52:00,
2013-08-17 06:57:00,63.5,59.2,30.00,ENE,69,0.0,0.0,86,0.00,,,0.00,WeatherCatV1.15B25,2013-08-17 11:57:00,
2013-08-17 07:02:00,63.3,58.7,30.00,ENE,69,0.0,0.0,85,0.00,,,0.00,WeatherCatV1.15B25,2013-08-17 12:02:00,
2013-08-17 07:06:00,63.2,58.9,30.00,ENE,69,0.0,0.0,86,0.00,,,0.00,WeatherCatV1.15B25,2013-08-17 12:06:00,
2013-08-17 07:11:00,63.2,59.3,30.00,ENE,69,0.0,0.0,87,0.00,,,0.00,WeatherCatV1.15B25,2013-08-17 12:11:00,
2013-08-17 07:16:00,63.1,59.2,30.00,ENE,69,0.0,0.0,87,0.00,,,0.00,WeatherCatV1.15B25,2013-08-17 12:16:00,
2013-08-17 07:21:00,63.1,59.2,30.00,ENE,69,0.0,0.0,87,0.00,,,0.00,WeatherCatV1.15B25,2013-08-17 12:21:00,
2013-08-17 07:26:00,63.1,59.5,30.00,ENE,69,0.0,0.0,88,0.00,,,0.00,WeatherCatV1.15B25,2013-08-17 12:26:00,
2013-08-17 07:31:00,63.2,59.6,30.00,ENE,69,0.0,0.0,88,0.00,,,0.00,WeatherCatV1.15B25,2013-08-17 12:31:00,
2013-08-17 07:36:00,63.3,60.0,30.00,ENE,69,0.0,0.0,89,0.00,,,0.00,WeatherCatV1.15B25,2013-08-17 12:36:00,
2013-08-17 07:41:00,63.4,60.1,30.00,ENE,69,0.0,0.0,89,0.00,,,0.00,WeatherCatV1.15B25,2013-08-17 12:41:00,
2013-08-17 07:46:00,63.5,60.2,30.01,ENE,65,0.0,0.0,89,0.00,,,0.00,WeatherCatV1.15B25,2013-08-17 12:46:00,
2013-08-17 07:51:00,63.6,60.3,30.01,ENE,65,0.0,0.0,89,0.00,,,0.00,WeatherCatV1.15B25,2013-08-17 12:51:00,
2013-08-17 07:56:00,63.8,60.5,30.01,ENE,67,0.0,1.0,89,0.00,,,0.00,WeatherCatV1.15B25,2013-08-17 12:56:00,
2013-08-17 08:01:00,64.0,60.4,30.00,ENE,64,0.0,0.0,88,0.00,,,0.00,WeatherCatV1.15B25,2013-08-17 13:01:00,
2013-08-17 08:06:00,64.2,60.6,30.00,ENE,63,0.0,1.0,88,0.00,,,0.00,WeatherCatV1.15B25,2013-08-17 13:06:00,
2013-08-17 08:11:00,64.5,60.9,30.00,NE,35,0.0,3.0,88,0.00,,,0.00,WeatherCatV1.15B25,2013-08-17 13:11:00,
2013-08-17 08:16:00,64.8,60.8,30.01,NE,35,0.0,0.0,87,0.00,,,0.00,WeatherCatV1.15B25,2013-08-17 13:16:00,
2013-08-17 08:21:00,65.1,60.8,30.01,NE,36,0.0,0.0,86,0.00,,,0.00,WeatherCatV1.15B25,2013-08-17 13:21:00,
2013-08-17 08:26:00,65.4,60.8,30.01,NE,36,0.0,4.0,85,0.00,,,0.00,WeatherCatV1.15B25,2013-08-17 13:26:00,
2013-08-17 08:31:00,65.8,60.8,30.01,ENE,68,0.0,0.0,84,0.00,,,0.00,WeatherCatV1.15B25,2013-08-17 13:31:00,
2013-08-17 08:36:00,66.3,61.0,30.01,ENE,65,3.0,5.0,83,0.00,,,0.00,WeatherCatV1.15B25,2013-08-17 13:36:00,
2013-08-17 08:41:00,66.7,61.0,30.01,ENE,63,0.0,0.0,82,0.00,,,0.00,WeatherCatV1.15B25,2013-08-17 13:41:00,
2013-08-17 08:46:00,67.1,61.4,30.01,ESE,119,0.0,1.0,82,0.00,,,0.00,WeatherCatV1.15B25,2013-08-17 13:46:00,
2013-08-17 08:51:00,67.6,61.6,30.01,NE,55,0.0,3.0,81,0.00,,,0.00,WeatherCatV1.15B25,2013-08-17 13:51:00,
2013-08-17 08:56:00,68.1,61.3,30.01,NNE,19,0.0,4.0,79,0.00,,,0.00,WeatherCatV1.15B25,2013-08-17 13:56:00,
2013-08-17 09:01:00,68.6,61.8,30.01,NE,51,1.0,4.0,79,0.00,,,0.00,WeatherCatV1.15B25,2013-08-17 14:01:00,
2013-08-17 09:06:00,69.1,61.6,30.01,NE,35,2.0,4.0,77,0.00,,,0.00,WeatherCatV1.15B25,2013-08-17 14:06:00,
2013-08-17 09:11:00,69.7,61.8,30.01,ENE,76,0.0,0.0,76,0.00,,,0.00,WeatherCatV1.15B25,2013-08-17 14:11:00,
2013-08-17 09:16:00,70.2,61.5,30.01,ENE,66,1.0,5.0,74,0.00,,,0.00,WeatherCatV1.15B25,2013-08-17 14:16:00,
2013-08-17 09:21:00,70.7,61.6,30.01,NE,39,2.0,4.0,73,0.00,,,0.00,WeatherCatV1.15B25,2013-08-17 14:21:00,
2013-08-17 09:26:00,71.3,62.2,30.01,NE,50,1.0,3.0,73,0.00,,,0.00,WeatherCatV1.15B25,2013-08-17 14:26:00,
2013-08-17 09:31:00,71.8,61.9,30.01,SE,142,0.0,4.0,71,0.00,,,0.00,WeatherCatV1.15B25,2013-08-17 14:31:00,
2013-08-17 09:36:00,72.3,61.5,30.01,SE,144,4.0,4.0,69,0.00,,,0.00,WeatherCatV1.15B25,2013-08-17 14:36:00,
2013-08-17 09:41:00,72.9,62.1,30.01,ENE,74,0.0,1.0,69,0.00,,,0.00,WeatherCatV1.15B25,2013-08-17 14:41:00,
2013-08-17 09:46:00,73.3,61.7,30.01,SSE,155,0.0,2.0,67,0.00,,,0.00,WeatherCatV1.15B25,2013-08-17 14:46:00,
2013-08-17 09:51:00,73.7,62.0,30.01,ENE,72,0.0,1.0,67,0.00,,,0.00,WeatherCatV1.15B25,2013-08-17 14:51:00,
2013-08-17 09:56:00,74.2,62.5,30.01,NNE,26,4.0,5.0,67,0.00,,,0.00,WeatherCatV1.15B25,2013-08-17 14:56:00,
2013-08-17 10:01:00,74.8,62.7,30.01,East,82,0.0,3.0,66,0.00,,,0.00,WeatherCatV1.15B25,2013-08-17 15:01:00,
2013-08-17 10:06:00,75.5,62.5,30.01,NE,36,0.0,5.0,64,0.00,,,0.00,WeatherCatV1.15B25,2013-08-17 15:06:00,
2013-08-17 10:11:00,76.3,62.8,30.01,ENE,73,0.0,3.0,63,0.00,,,0.00,WeatherCatV1.15B25,2013-08-17 15:11:00,
2013-08-17 10:16:00,77.2,63.2,30.01,NE,40,3.0,5.0,62,0.00,,,0.00,WeatherCatV1.15B25,2013-08-17 15:16:00,
2013-08-17 10:21:00,78.2,62.2,30.01,NE,44,4.0,7.0,58,0.00,,,0.00,WeatherCatV1.15B25,2013-08-17 15:21:00,
2013-08-17 10:26:00,79.1,62.5,30.01,ENE,65,0.0,4.0,57,0.00,,,0.00,WeatherCatV1.15B25,2013-08-17 15:26:00,
2013-08-17 10:31:00,79.8,61.7,30.01,ENE,69,2.0,4.0,54,0.00,,,0.00,WeatherCatV1.15B25,2013-08-17 15:31:00,
2013-08-17 10:36:00,80.3,63.1,30.01,WNW,287,0.0,0.0,56,0.00,,,0.00,WeatherCatV1.15B25,2013-08-17 15:36:00,
2013-08-17 10:41:00,80.9,63.2,30.01,NNW,347,3.0,4.0,55,0.00,,,0.00,WeatherCatV1.15B25,2013-08-17 15:41:00,
2013-08-17 10:46:00,81.5,62.1,30.00,East,91,0.0,1.0,52,0.00,,,0.00,WeatherCatV1.15B25,2013-08-17 15:46:00,
2013-08-17 10:51:00,82.0,62.1,30.00,NE,42,2.0,6.0,51,0.00,,,0.00,WeatherCatV1.15B25,2013-08-17 15:51:00,
2013-08-17 10:56:00,82.4,62.4,30.00,NNE,24,0.0,7.0,51,0.00,,,0.00,WeatherCatV1.15B25,2013-08-17 15:56:00,
2013-08-17 11:01:00,82.8,62.2,30.00,NE,40,0.0,5.0,50,0.00,,,0.00,WeatherCatV1.15B25,2013-08-17 16:01:00,
2013-08-17 11:06:00,83.3,62.1,30.00,NNW,346,0.0,3.0,49,0.00,,,0.00,WeatherCatV1.15B25,2013-08-17 16:06:00,
2013-08-17 11:11:00,83.8,62.0,30.00,NE,47,0.0,1.0,48,0.00,,,0.00,WeatherCatV1.15B25,2013-08-17 16:11:00,
2013-08-17 11:16:00,84.2,62.3,30.01,North,0,0.0,6.0,48,0.00,,,0.00,WeatherCatV1.15B25,2013-08-17 16:16:00,
2013-08-17 11:21:00,84.5,63.8,30.01,NE,54,0.0,1.0,50,0.00,,,0.00,WeatherCatV1.15B25,2013-08-17 16:21:00,
2013-08-17 11:26:00,84.8,62.9,30.01,NW,323,0.0,1.0,48,0.00,,,0.00,WeatherCatV1.15B25,2013-08-17 16:26:00,
2013-08-17 11:31:00,85.2,63.3,30.01,North,355,0.0,1.0,48,0.00,,,0.00,WeatherCatV1.15B25,2013-08-17 16:31:00,
2013-08-17 11:36:00,85.7,64.3,30.01,NNW,333,0.0,1.0,49,0.00,,,0.00,WeatherCatV1.15B25,2013-08-17 16:36:00,
2013-08-17 11:41:00,86.0,62.8,30.01,NE,55,1.0,7.0,46,0.00,,,0.00,WeatherCatV1.15B25,2013-08-17 16:41:00,
2013-08-17 11:46:00,85.9,63.3,30.00,NNE,31,5.0,6.0,47,0.00,,,0.00,WeatherCatV1.15B25,2013-08-17 16:46:00,
2013-08-17 11:51:00,86.2,63.6,30.00,WNW,284,0.0,3.0,47,0.00,,,0.00,WeatherCatV1.15B25,2013-08-17 16:51:00,
2013-08-17 11:56:00,86.3,64.3,30.00,NNW,346,0.0,1.0,48,0.00,,,0.00,WeatherCatV1.15B25,2013-08-17 16:56:00,
2013-08-17 12:01:00,86.6,64.5,30.00,North,355,0.0,1.0,48,0.00,,,0.00,WeatherCatV1.15B25,2013-08-17 17:01:00,
2013-08-17 12:06:00,86.8,64.7,30.00,NNE,24,3.0,4.0,48,0.00,,,0.00,WeatherCatV1.15B25,2013-08-17 17:06:00,
2013-08-17 12:11:00,87.1,64.4,30.00,North,351,0.0,1.0,47,0.00,,,0.00,WeatherCatV1.15B25,2013-08-17 17:11:00,
2013-08-17 12:16:00,87.3,64.6,29.99,West,275,0.0,4.0,47,0.00,,,0.00,WeatherCatV1.15B25,2013-08-17 17:16:00,
2013-08-17 12:21:00,87.3,62.7,29.99,NW,316,0.0,5.0,44,0.00,,,0.00,WeatherCatV1.15B25,2013-08-17 17:21:00,
2013-08-17 12:26:00,87.6,63.6,29.99,NNW,330,2.0,2.0,45,0.00,,,0.00,WeatherCatV1.15B25,2013-08-17 17:26:00,
2013-08-17 12:31:00,87.7,64.9,29.99,NNE,32,6.0,6.0,47,0.00,,,0.00,WeatherCatV1.15B25,2013-08-17 17:31:00,
2013-08-17 12:36:00,88.0,64.0,29.99,NNW,333,0.0,6.0,45,0.00,,,0.00,WeatherCatV1.15B25,2013-08-17 17:36:00,
2013-08-17 12:41:00,88.2,64.1,29.99,NNW,335,0.0,10.0,45,0.00,,,0.00,WeatherCatV1.15B25,2013-08-17 17:41:00,
2013-08-17 12:46:00,88.4,64.3,29.98,North,11,0.0,5.0,45,0.00,,,0.00,WeatherCatV1.15B25,2013-08-17 17:46:00,
2013-08-17 12:51:00,88.4,64.9,29.98,NNE,30,0.0,3.0,46,0.00,,,0.00,WeatherCatV1.15B25,2013-08-17 17:51:00,
2013-08-17 12:56:00,88.6,64.5,29.98,West,275,4.0,4.0,45,0.00,,,0.00,WeatherCatV1.15B25,2013-08-17 17:56:00,
2013-08-17 13:01:00,88.7,63.9,29.98,NNW,344,1.0,3.0,44,0.00,,,0.00,WeatherCatV1.15B25,2013-08-17 18:01:00,
2013-08-17 13:06:00,88.6,63.9,29.98,WNW,290,4.0,8.0,44,0.00,,,0.00,WeatherCatV1.15B25,2013-08-17 18:06:00,
2013-08-17 13:11:00,88.8,65.9,29.98,NNW,348,3.0,4.0,47,0.00,,,0.00,WeatherCatV1.15B25,2013-08-17 18:11:00,
2013-08-17 13:16:00,88.8,64.0,29.97,NW,322,0.0,4.0,44,0.00,,,0.00,WeatherCatV1.15B25,2013-08-17 18:16:00,
2013-08-17 13:21:00,89.1,65.6,29.97,WNW,297,0.0,8.0,46,0.00,,,0.00,WeatherCatV1.15B25,2013-08-17 18:21:00,
2013-08-17 13:26:00,89.2,66.3,29.97,NW,311,0.0,5.0,47,0.00,,,0.00,WeatherCatV1.15B25,2013-08-17 18:26:00,
2013-08-17 13:31:00,89.3,65.1,29.96,North,355,3.0,6.0,45,0.00,,,0.00,WeatherCatV1.15B25,2013-08-17 18:31:00,
2013-08-17 13:36:00,89.5,64.7,29.96,NE,36,0.0,4.0,44,0.00,,,0.00,WeatherCatV1.15B25,2013-08-17 18:36:00,
2013-08-17 13:41:00,89.5,64.0,29.96,NNE,28,0.0,6.0,43,0.00,,,0.00,WeatherCatV1.15B25,2013-08-17 18:41:00,
2013-08-17 13:46:00,89.8,66.2,29.96,NNE,19,0.0,1.0,46,0.00,,,0.00,WeatherCatV1.15B25,2013-08-17 18:46:00,
2013-08-17 13:51:00,90.1,64.5,29.96,WNW,288,0.0,4.0,43,0.00,,,0.00,WeatherCatV1.15B25,2013-08-17 18:51:00,
2013-08-17 13:56:00,90.2,65.3,29.96,SE,124,0.0,7.0,44,0.00,,,0.00,WeatherCatV1.15B25,2013-08-17 18:56:00,
2013-08-17 14:01:00,90.2,64.0,29.95,North,350,3.0,7.0,42,0.00,,,0.00,WeatherCatV1.15B25,2013-08-17 19:01:00,
2013-08-17 14:06:00,90.1,65.2,29.95,NNE,32,0.0,1.0,44,0.00,,,0.00,WeatherCatV1.15B25,2013-08-17 19:06:00,
2013-08-17 14:11:00,90.5,63.5,29.95,NNW,329,3.0,10.0,41,0.00,,,0.00,WeatherCatV1.15B25,2013-08-17 19:11:00,
2013-08-17 14:16:00,90.6,64.3,29.95,North,355,0.0,5.0,42,0.00,,,0.00,WeatherCatV1.15B25,2013-08-17 19:16:00,
2013-08-17 14:21:00,90.8,65.8,29.95,North,0,2.0,6.0,44,0.00,,,0.00,WeatherCatV1.15B25,2013-08-17 19:21:00,
2013-08-17 14:26:00,91.2,64.9,29.95,NE,41,0.0,3.0,42,0.00,,,0.00,WeatherCatV1.15B25,2013-08-17 19:26:00,
2013-08-17 14:31:00,91.3,64.9,29.94,West,264,5.0,6.0,42,0.00,,,0.00,WeatherCatV1.15B25,2013-08-17 19:31:00,
2013-08-17 14:36:00,91.2,64.9,29.94,NE,34,0.0,6.0,42,0.00,,,0.00,WeatherCatV1.15B25,2013-08-17 19:36:00,
2013-08-17 14:41:00,91.4,62.9,29.94,North,350,3.0,5.0,39,0.00,,,0.00,WeatherCatV1.15B25,2013-08-17 19:41:00,
2013-08-17 14:46:00,91.4,64.3,29.93,North,5,0.0,1.0,41,0.00,,,0.00,WeatherCatV1.15B25,2013-08-17 19:46:00,
2013-08-17 14:51:00,91.7,65.3,29.93,NW,313,1.0,4.0,42,0.00,,,0.00,WeatherCatV1.15B25,2013-08-17 19:51:00,
2013-08-17 14:56:00,92.0,64.9,29.93,NNW,331,0.0,2.0,41,0.00,,,0.00,WeatherCatV1.15B25,2013-08-17 19:56:00,
2013-08-17 15:01:00,92.4,64.5,29.92,North,355,3.0,7.0,40,0.00,,,0.00,WeatherCatV1.15B25,2013-08-17 20:01:00,
2013-08-17 15:06:00,92.8,65.6,29.92,NW,307,5.0,5.0,41,0.00,,,0.00,WeatherCatV1.15B25,2013-08-17 20:06:00,
2013-08-17 15:11:00,92.9,64.2,29.92,NNW,348,0.0,7.0,39,0.00,,,0.00,WeatherCatV1.15B25,2013-08-17 20:11:00,
2013-08-17 15:16:00,92.6,64.0,29.91,NE,48,0.0,8.0,39,0.00,,,0.00,WeatherCatV1.15B25,2013-08-17 20:16:00,
2013-08-17 15:21:00,92.8,64.9,29.91,West,266,10.0,10.0,40,0.00,,,0.00,WeatherCatV1.15B25,2013-08-17 20:21:00,
2013-08-17 15:26:00,93.0,65.1,29.91,NNW,345,0.0,3.0,40,0.00,,,0.00,WeatherCatV1.15B25,2013-08-17 20:26:00,
2013-08-17 15:31:00,93.0,64.3,29.91,NE,38,0.0,7.0,39,0.00,,,0.00,WeatherCatV1.15B25,2013-08-17 20:31:00,
2013-08-17 15:36:00,93.0,63.6,29.91,NNE,30,3.0,5.0,38,0.00,,,0.00,WeatherCatV1.15B25,2013-08-17 20:36:00,
2013-08-17 15:41:00,93.2,65.2,29.91,ENE,59,5.0,10.0,40,0.00,,,0.00,WeatherCatV1.15B25,2013-08-17 20:41:00,
2013-08-17 15:46:00,93.6,62.6,29.91,NE,34,5.0,10.0,36,0.00,,,0.00,WeatherCatV1.15B25,2013-08-17 20:46:00,
2013-08-17 15:51:00,94.0,63.7,29.91,East,98,1.0,11.0,37,0.00,,,0.00,WeatherCatV1.15B25,2013-08-17 20:51:00,
2013-08-17 15:56:00,94.2,64.6,29.91,NW,321,0.0,9.0,38,0.00,,,0.00,WeatherCatV1.15B25,2013-08-17 20:56:00,
2013-08-17 16:01:00,94.3,63.2,29.90,NE,56,5.0,5.0,36,0.00,,,0.00,WeatherCatV1.15B25,2013-08-17 21:01:00,
2013-08-17 16:06:00,94.5,64.9,29.90,NE,39,4.0,4.0,38,0.00,,,0.00,WeatherCatV1.15B25,2013-08-17 21:06:00,
2013-08-17 16:11:00,94.7,61.9,29.90,NE,34,0.0,1.0,34,0.00,,,0.00,WeatherCatV1.15B25,2013-08-17 21:11:00,
2013-08-17 16:16:00,94.9,60.4,29.90,NNE,32,0.0,5.0,32,0.00,,,0.00,WeatherCatV1.15B25,2013-08-17 21:16:00,
2013-08-17 16:21:00,95.0,61.3,29.90,NNW,342,0.0,1.0,33,0.00,,,0.00,WeatherCatV1.15B25,2013-08-17 21:21:00,
2013-08-17 16:26:00,95.1,63.1,29.90,NNE,24,4.0,4.0,35,0.00,,,0.00,WeatherCatV1.15B25,2013-08-17 21:26:00,
2013-08-17 16:31:00,95.3,62.4,29.90,NNE,18,0.0,7.0,34,0.00,,,0.00,WeatherCatV1.15B25,2013-08-17 21:31:00,
2013-08-17 16:39:00,95.5,62.6,29.90,ENE,69,1.0,7.0,34,0.00,,,0.00,WeatherCatV1.15B25,2013-08-17 21:39:00,
2013-08-17 16:44:00,95.6,64.3,29.90,North,0,0.0,5.0,36,0.00,,,0.00,WeatherCatV1.15B25,2013-08-17 21:44:00,
2013-08-17 16:49:00,95.7,62.8,29.89,NNE,24,4.0,10.0,34,0.00,,,0.00,WeatherCatV1.15B25,2013-08-17 21:49:00,
2013-08-17 16:54:00,95.6,62.7,29.89,NNW,344,0.0,6.0,34,0.00,,,0.00,WeatherCatV1.15B25,2013-08-17 21:54:00,
2013-08-17 16:59:00,95.6,62.7,29.89,NE,38,0.0,1.0,34,0.00,,,0.00,WeatherCatV1.15B25,2013-08-17 21:59:00,
2013-08-17 17:04:00,95.6,61.8,29.89,NNE,24,6.0,9.0,33,0.00,,,0.00,WeatherCatV1.15B25,2013-08-17 22:04:00,
2013-08-17 17:09:00,95.6,62.7,29.89,NNE,20,3.0,9.0,34,0.00,,,0.00,WeatherCatV1.15B25,2013-08-17 22:09:00,
2013-08-17 17:14:00,95.4,62.5,29.89,NE,36,0.0,8.0,34,0.00,,,0.00,WeatherCatV1.15B25,2013-08-17 22:14:00,
2013-08-17 17:19:00,95.3,62.4,29.89,NNE,27,0.0,5.0,34,0.00,,,0.00,WeatherCatV1.15B25,2013-08-17 22:19:00,
2013-08-17 17:24:00,95.0,61.3,29.89,NE,38,0.0,1.0,33,0.00,,,0.00,WeatherCatV1.15B25,2013-08-17 22:24:00,
2013-08-17 17:29:00,94.6,61.8,29.89,NE,37,3.0,5.0,34,0.00,,,0.00,WeatherCatV1.15B25,2013-08-17 22:29:00,
2013-08-17 17:34:00,94.0,62.9,29.89,East,96,0.0,6.0,36,0.00,,,0.00,WeatherCatV1.15B25,2013-08-17 22:34:00,
2013-08-17 17:39:00,93.7,61.0,29.89,ENE,65,0.0,1.0,34,0.00,,,0.00,WeatherCatV1.15B25,2013-08-17 22:39:00,
2013-08-17 17:44:00,93.2,61.4,29.89,ENE,71,2.0,7.0,35,0.00,,,0.00,WeatherCatV1.15B25,2013-08-17 22:44:00,
2013-08-17 17:49:00,92.7,61.0,29.89,North,11,0.0,9.0,35,0.00,,,0.00,WeatherCatV1.15B25,2013-08-17 22:49:00,
2013-08-17 17:54:00,92.2,60.5,29.89,NE,44,0.0,6.0,35,0.00,,,0.00,WeatherCatV1.15B25,2013-08-17 22:54:00,
2013-08-17 17:59:00,91.7,60.9,29.89,ESE,121,0.0,10.0,36,0.00,,,0.00,WeatherCatV1.15B25,2013-08-17 22:59:00,
2013-08-17 18:04:00,91.3,60.6,29.89,ENE,71,0.0,1.0,36,0.00,,,0.00,WeatherCatV1.15B25,2013-08-17 23:04:00,
2013-08-17 18:09:00,91.0,61.1,29.89,NE,36,5.0,7.0,37,0.00,,,0.00,WeatherCatV1.15B25,2013-08-17 23:09:00,
2013-08-17 18:14:00,90.6,60.7,29.89,NNE,22,0.0,2.0,37,0.00,,,0.00,WeatherCatV1.15B25,2013-08-17 23:14:00,
2013-08-17 18:19:00,90.3,60.4,29.89,East,80,0.0,6.0,37,0.00,,,0.00,WeatherCatV1.15B25,2013-08-17 23:19:00,
2013-08-17 18:24:00,90.1,60.3,29.89,ENE,76,0.0,1.0,37,0.00,,,0.00,WeatherCatV1.15B25,2013-08-17 23:24:00,
2013-08-17 18:29:00,89.8,60.0,29.88,NNE,33,0.0,6.0,37,0.00,,,0.00,WeatherCatV1.15B25,2013-08-17 23:29:00,
2013-08-17 18:34:00,89.6,60.6,29.88,NNE,31,0.0,2.0,38,0.00,,,0.00,WeatherCatV1.15B25,2013-08-17 23:34:00,
2013-08-17 18:39:00,89.4,61.9,29.88,NE,42,0.0,4.0,40,0.00,,,0.00,WeatherCatV1.15B25,2013-08-17 23:39:00,
2013-08-17 18:44:00,89.1,60.9,29.89,ENE,67,0.0,2.0,39,0.00,,,0.00,WeatherCatV1.15B25,2013-08-17 23:44:00,
2013-08-17 18:49:00,88.8,60.6,29.89,North,0,0.0,5.0,39,0.00,,,0.00,WeatherCatV1.15B25,2013-08-17 23:49:00,
2013-08-17 18:54:00,88.5,59.6,29.89,NE,38,0.0,0.0,38,0.00,,,0.00,WeatherCatV1.15B25,2013-08-17 23:54:00,
2013-08-17 18:59:00,88.3,60.2,29.89,NE,44,2.0,3.0,39,0.00,,,0.00,WeatherCatV1.15B25,2013-08-17 23:59:00,
2013-08-17 19:04:00,88.0,59.9,29.89,NE,42,0.0,5.0,39,0.00,,,0.00,WeatherCatV1.15B25,2013-08-18 00:04:00,
2013-08-17 19:09:00,87.8,59.7,29.89,NE,37,0.0,0.0,39,0.00,,,0.00,WeatherCatV1.15B25,2013-08-18 00:09:00,
2013-08-17 19:14:00,87.6,59.5,29.89,ENE,58,0.0,1.0,39,0.00,,,0.00,WeatherCatV1.15B25,2013-08-18 00:14:00,
2013-08-17 19:19:00,87.3,59.3,29.89,ESE,103,0.0,2.0,39,0.00,,,0.00,WeatherCatV1.15B25,2013-08-18 00:19:00,
2013-08-17 19:24:00,87.1,59.1,29.89,East,94,0.0,0.0,39,0.00,,,0.00,WeatherCatV1.15B25,2013-08-18 00:24:00,
2013-08-17 19:29:00,86.9,59.6,29.89,ENE,66,0.0,1.0,40,0.00,,,0.00,WeatherCatV1.15B25,2013-08-18 00:29:00,
2013-08-17 19:34:00,86.7,59.5,29.89,NNE,18,0.0,0.0,40,0.00,,,0.00,WeatherCatV1.15B25,2013-08-18 00:34:00,
2013-08-17 19:39:00,86.4,60.6,29.89,NE,54,0.0,0.0,42,0.00,,,0.00,WeatherCatV1.15B25,2013-08-18 00:39:00,
2013-08-17 19:44:00,86.1,60.3,29.89,ENE,67,0.0,1.0,42,0.00,,,0.00,WeatherCatV1.15B25,2013-08-18 00:44:00,
2013-08-17 19:49:00,85.8,60.7,29.89,ENE,67,0.0,1.0,43,0.00,,,0.00,WeatherCatV1.15B25,2013-08-18 00:49:00,
2013-08-17 19:54:00,85.5,60.4,29.89,NE,40,0.0,1.0,43,0.00,,,0.00,WeatherCatV1.15B25,2013-08-18 00:54:00,
2013-08-17 19:59:00,85.3,60.2,29.90,NE,40,0.0,0.0,43,0.00,,,0.00,WeatherCatV1.15B25,2013-08-18 00:59:00,
2013-08-17 20:04:00,85.0,60.6,29.90,NE,46,0.0,0.0,44,0.00,,,0.00,WeatherCatV1.15B25,2013-08-18 01:04:00,
2013-08-17 20:09:00,84.6,60.9,29.90,ENE,62,0.0,0.0,45,0.00,,,0.00,WeatherCatV1.15B25,2013-08-18 01:09:00,
2013-08-17 20:14:00,84.3,60.6,29.90,ESE,113,0.0,0.0,45,0.00,,,0.00,WeatherCatV1.15B25,2013-08-18 01:14:00,
2013-08-17 20:19:00,83.9,60.3,29.90,ESE,113,0.0,0.0,45,0.00,,,0.00,WeatherCatV1.15B25,2013-08-18 01:19:00,
2013-08-17 20:24:00,83.5,61.1,29.90,ESE,113,0.0,0.0,47,0.00,,,0.00,WeatherCatV1.15B25,2013-08-18 01:24:00,
2013-08-17 20:29:00,83.2,61.4,29.90,ESE,120,0.0,0.0,48,0.00,,,0.00,WeatherCatV1.15B25,2013-08-18 01:29:00,
2013-08-17 20:34:00,82.8,61.1,29.90,ESE,119,0.0,0.0,48,0.00,,,0.00,WeatherCatV1.15B25,2013-08-18 01:34:00,
2013-08-17 20:39:00,82.4,62.4,29.90,ESE,119,0.0,0.0,51,0.00,,,0.00,WeatherCatV1.15B25,2013-08-18 01:39:00,
2013-08-17 20:44:00,82.1,62.1,29.90,ESE,118,0.0,0.0,51,0.00,,,0.00,WeatherCatV1.15B25,2013-08-18 01:44:00,
2013-08-17 20:49:00,81.6,62.2,29.90,ESE,119,0.0,0.0,52,0.00,,,0.00,WeatherCatV1.15B25,2013-08-18 01:49:00,
2013-08-17 20:54:00,81.2,62.4,29.90,ESE,118,0.0,0.0,53,0.00,,,0.00,WeatherCatV1.15B25,2013-08-18 01:54:00,
2013-08-17 20:59:00,80.8,62.0,29.90,ESE,118,0.0,0.0,53,0.00,,,0.00,WeatherCatV1.15B25,2013-08-18 01:59:00,
2013-08-17 21:04:00,80.4,62.2,29.90,ESE,119,0.0,0.0,54,0.00,,,0.00,WeatherCatV1.15B25,2013-08-18 02:04:00,
2013-08-17 21:09:00,80.0,62.4,29.90,ESE,118,0.0,0.0,55,0.00,,,0.00,WeatherCatV1.15B25,2013-08-18 02:09:00,
2013-08-17 21:14:00,79.6,62.0,29.91,ESE,119,0.0,0.0,55,0.00,,,0.00,WeatherCatV1.15B25,2013-08-18 02:14:00,
2013-08-17 21:19:00,79.2,62.1,29.91,ESE,104,0.0,0.0,56,0.00,,,0.00,WeatherCatV1.15B25,2013-08-18 02:19:00,
2013-08-17 21:24:00,78.8,60.7,29.91,ESE,104,0.0,0.0,54,0.00,,,0.00,WeatherCatV1.15B25,2013-08-18 02:24:00,
2013-08-17 21:29:00,78.5,62.0,29.91,ESE,104,0.0,0.0,57,0.00,,,0.00,WeatherCatV1.15B25,2013-08-18 02:29:00,
2013-08-17 21:34:00,78.2,62.2,29.91,East,97,0.0,0.0,58,0.00,,,0.00,WeatherCatV1.15B25,2013-08-18 02:34:00,
2013-08-17 21:39:00,78.0,61.5,29.91,East,90,0.0,1.0,57,0.00,,,0.00,WeatherCatV1.15B25,2013-08-18 02:39:00,
2013-08-17 21:44:00,77.8,61.8,29.92,East,90,0.0,0.0,58,0.00,,,0.00,WeatherCatV1.15B25,2013-08-18 02:44:00,
2013-08-17 21:49:00,77.6,61.1,29.92,East,90,0.0,0.0,57,0.00,,,0.00,WeatherCatV1.15B25,2013-08-18 02:49:00,
2013-08-17 21:54:00,77.4,61.4,29.92,East,90,0.0,0.0,58,0.00,,,0.00,WeatherCatV1.15B25,2013-08-18 02:54:00,
2013-08-17 21:59:00,77.2,61.7,29.93,East,92,0.0,1.0,59,0.00,,,0.00,WeatherCatV1.15B25,2013-08-18 02:59:00,
2013-08-17 22:04:00,77.0,60.6,29.93,East,88,0.0,1.0,57,0.00,,,0.00,WeatherCatV1.15B25,2013-08-18 03:04:00,
2013-08-17 22:09:00,76.9,61.0,29.93,East,93,0.0,0.0,58,0.00,,,0.00,WeatherCatV1.15B25,2013-08-18 03:09:00,
2013-08-17 22:14:00,76.7,60.3,29.93,SE,132,0.0,1.0,57,0.00,,,0.00,WeatherCatV1.15B25,2013-08-18 03:14:00,
2013-08-17 22:19:00,76.6,60.2,29.93,SE,141,0.0,0.0,57,0.00,,,0.00,WeatherCatV1.15B25,2013-08-18 03:19:00,
2013-08-17 22:24:00,76.6,60.2,29.93,ESE,106,0.0,1.0,57,0.00,,,0.00,WeatherCatV1.15B25,2013-08-18 03:24:00,
2013-08-17 22:29:00,76.6,60.2,29.93,ESE,111,0.0,2.0,57,0.00,,,0.00,WeatherCatV1.15B25,2013-08-18 03:29:00,
2013-08-17 22:34:00,76.6,60.2,29.93,ESE,103,0.0,1.0,57,0.00,,,0.00,WeatherCatV1.15B25,2013-08-18 03:34:00,
2013-08-17 22:39:00,76.5,60.6,29.93,ESE,116,0.0,1.0,58,0.00,,,0.00,WeatherCatV1.15B25,2013-08-18 03:39:00,
2013-08-17 22:44:00,76.4,60.5,29.93,East,97,0.0,1.0,58,0.00,,,0.00,WeatherCatV1.15B25,2013-08-18 03:44:00,
2013-08-17 22:49:00,76.3,60.4,29.93,ESE,105,0.0,1.0,58,0.00,,,0.00,WeatherCatV1.15B25,2013-08-18 03:49:00,
2013-08-17 22:54:00,76.2,60.8,29.93,ESE,106,0.0,1.0,59,0.00,,,0.00,WeatherCatV1.15B25,2013-08-18 03:54:00,
2013-08-17 22:59:00,76.0,61.1,29.94,ESE,106,0.0,0.0,60,0.00,,,0.00,WeatherCatV1.15B25,2013-08-18 03:59:00,
2013-08-17 23:01:00,75.9,61.0,29.94,ESE,106,0.0,0.0,60,0.00,,,0.00,WeatherCatV1.15B25,2013-08-18 04:01:00,
2013-08-17 23:06:00,75.7,60.8,29.94,ESE,115,0.0,2.0,60,0.00,,,0.00,WeatherCatV1.15B25,2013-08-18 04:06:00,
2013-08-17 23:11:00,75.5,61.1,29.94,East,94,0.0,0.0,61,0.00,,,0.00,WeatherCatV1.15B25,2013-08-18 04:11:00,
2013-08-17 23:16:00,75.3,61.4,29.94,East,80,0.0,0.0,62,0.00,,,0.00,WeatherCatV1.15B25,2013-08-18 04:16:00,
2013-08-17 23:21:00,75.1,61.2,29.94,East,82,0.0,0.0,62,0.00,,,0.00,WeatherCatV1.15B25,2013-08-18 04:21:00,
2013-08-17 23:26:00,74.9,61.4,29.94,ESE,109,0.0,0.0,63,0.00,,,0.00,WeatherCatV1.15B25,2013-08-18 04:26:00,
2013-08-17 23:31:00,74.7,61.7,29.94,SE,135,0.0,4.0,64,0.00,,,0.00,WeatherCatV1.15B25,2013-08-18 04:31:00,
2013-08-17 23:36:00,74.6,61.6,29.94,East,86,0.0,1.0,64,0.00,,,0.00,WeatherCatV1.15B25,2013-08-18 04:36:00,
2013-08-17 23:41:00,74.4,61.4,29.94,East,91,0.0,0.0,64,0.00,,,0.00,WeatherCatV1.15B25,2013-08-18 04:41:00,
2013-08-17 23:46:00,74.3,61.8,29.94,ESE,105,0.0,1.0,65,0.00,,,0.00,WeatherCatV1.15B25,2013-08-18 04:46:00,
2013-08-17 23:51:00,74.2,61.7,29.94,East,97,0.0,2.0,65,0.00,,,0.00,WeatherCatV1.15B25,2013-08-18 04:51:00,
2013-08-17 23:56:00,74.1,62.0,29.94,ENE,67,0.0,0.0,66,0.00,,,0.00,WeatherCatV1.15B25,2013-08-18 04:56:00,